星链-34263 (STARLINK-34263)

导读

STARLINK-34263是美国于2025年5月27日发射的星链系列卫星,归属于SpaceX公司的星链互联网星座项目,该项目旨在为全球提供高速低延迟卫星互联网服务,完成部署后可覆盖偏远区域,弥补地面通信网络覆盖盲区,该卫星入轨后将承担相关通信传输任务。

Basic Information
目录编号:
64164
目录名称:
STARLINK-34263
国际标识:
2025-112U
轨道中心:
EARTH
卫星名称:
星链-34263
卫星全名:
星链-34263 (STARLINK-34263)
卫星状态:
在轨 (已飞行383 天)
发射日期:
2025-05-27 UTC
国别 :
美国 (US)
星等 :
--
Orbit Information
数据来源 国际轨道数据 AOE轨道数据
星历时间 2026-06-14T03:57:08+0800
6小时前
查看轨道信息
2026-06-11T00:00:00+0800
3天前
查看轨道信息
半长轴 6927.633km 6927.637km
偏心率 0.0001579 0.0001665
轨道倾角 97.364° 97.380°
近地点辐角 156.781° 146.858°
升交点赤经 215.399° 212.380°
平近点角 203.349° 350.414°
近地点 548.402km 548.346km
远地点 550.59km 550.654km
周期 95.639分钟 95.640分钟
每日圈数 15.056551 15.056539
Detailed Information
固有亮度:
5
最大亮度:
2.5
卫星平台:
Starlink V1.0
覆盖范围:
全球
运营商:
太空探索技术公司
运营商所在国:
美国
制造商(研发单位):
太空探索技术公司
制造商所在国:
美国
使用方式:
暂无
Satellite Introduction
Starlink 计划是 SpaceX 推出的全球卫星互联网项目,通过发射低轨道卫星,为全球尤其是偏远地区提供高速、低延迟的互联网服务。自 2019 年起,Starlink 已部署数千颗卫星,旨在缩小全球数字鸿沟,推动互联网普及。该项目还为军事、航空等行业提供通信支持,带来广泛经济效益。
2D Orbit Map
3D Orbit Map
Orbit Altitude Analysis Chart
Orbit Inclination Analysis Chart
Orbit Comprehensive Analysis Chart
View Comprehensive Chart